^^
Saratoga-Weather Station Historical Data
Daily Summary for March 9, 2020 Units:  English    Metric   Both
Daily Weekly Monthly Yearly Custom
  High: Low: Average:
Temperature: 86.5 °F 67.1 °F 72.5 °F
Dew Point: 64 °F 59.9 °F 61.5 °F
Humidity: 80% 45% 69%
Wind Speed: 4mph 0mph 0.2mph
Wind Gust: 5mph - -
Wind- - East
Pressure: 30 in 30 in -
Precipitation: 0 in    
Historical Graphs
 
 
Tabular Data for March 9, 2020
Time Temperature Dew Point Pressure Wind Wind Speed Wind Gust Humidity Rainfall Rate (Hourly) solar
00:02 75 °F 61.2 °F 30 in Calm     62% 0 in 0 W/m2
00:07 74.8 °F 61 °F 30 in Calm     62% 0 in 0 W/m2
00:12 74.7 °F 61.2 °F 30 in Calm     63% 0 in 0 W/m2
00:17 74.5 °F 61 °F 30 in Calm     63% 0 in 0 W/m2
00:22 74.5 °F 61 °F 30 in Calm     63% 0 in 0 W/m2
00:27 74.1 °F 60.8 °F 30 in Calm     63% 0 in 0 W/m2
00:32 74.1 °F 61.2 °F 30 in Calm     64% 0 in 0 W/m2
00:37 73.9 °F 61 °F 30 in Calm     64% 0 in 0 W/m2
00:42 73.8 °F 60.8 °F 30 in Calm     64% 0 in 0 W/m2
00:47 73.6 °F 60.6 °F 30 in Calm     64% 0 in 0 W/m2
00:52 73.4 °F 61 °F 30 in Calm     65% 0 in 0 W/m2
00:57 73.2 °F 60.8 °F 30 in Calm     65% 0 in 0 W/m2
01:02 73.2 °F 60.8 °F 30 in Calm     65% 0 in 0 W/m2
01:07 73 °F 60.6 °F 30 in Calm     65% 0 in 0 W/m2
01:13 72.9 °F 60.4 °F 30 in Calm     65% 0 in 0 W/m2
01:18 72.9 °F 60.8 °F 30 in Calm     66% 0 in 0 W/m2
01:23 72.7 °F 60.6 °F 30 in Calm     66% 0 in 0 W/m2
01:28 72.5 °F 60.4 °F 30 in Calm     66% 0 in 0 W/m2
01:33 72.5 °F 60.4 °F 30 in Calm     66% 0 in 0 W/m2
01:38 72.3 °F 60.8 °F 30 in Calm     67% 0 in 0 W/m2
01:43 72.3 °F 60.8 °F 30 in Calm     67% 0 in 0 W/m2
01:48 72.1 °F 60.6 °F 30 in Calm     67% 0 in 0 W/m2
01:53 72.1 °F 60.6 °F 30 in Calm     67% 0 in 0 W/m2
01:58 72 °F 60.8 °F 30 in Calm     68% 0 in 0 W/m2
02:03 71.8 °F 60.6 °F 30 in Calm     68% 0 in 0 W/m2
02:08 71.6 °F 60.4 °F 30 in Calm     68% 0 in 0 W/m2
02:13 71.4 °F 60.8 °F 30 in Calm     69% 0 in 0 W/m2
02:18 71.4 °F 61.2 °F 30 in Calm     70% 0 in 0 W/m2
02:23 71.2 °F 61 °F 30 in Calm     70% 0 in 0 W/m2
02:28 71.2 °F 61.3 °F 30 in Calm     71% 0 in 0 W/m2
02:33 71.1 °F 61.2 °F 30 in Calm     71% 0 in 0 W/m2
02:38 70.9 °F 61.3 °F 30 in Calm     72% 0 in 0 W/m2
02:43 70.9 °F 61.9 °F 30 in Calm     73% 0 in 0 W/m2
02:48 70.7 °F 61.7 °F 30 in Calm     73% 0 in 0 W/m2
02:53 70.5 °F 61.5 °F 30 in Calm     73% 0 in 0 W/m2
02:58 70.5 °F 61.5 °F 30 in Calm     73% 0 in 0 W/m2
03:03 70.3 °F 61.3 °F 30 in Calm     73% 0 in 0 W/m2
03:09 70.3 °F 61.3 °F 30 in Calm     73% 0 in 0 W/m2
03:14 70.3 °F 61.3 °F 30 in Calm     73% 0 in 0 W/m2
03:19 70.2 °F 61.2 °F 30 in Calm     73% 0 in 0 W/m2
03:24 70.2 °F 61.2 °F 30 in Calm     73% 0 in 0 W/m2
03:29 70 °F 61.3 °F 30 in Calm     74% 0 in 0 W/m2
03:34 70 °F 61.3 °F 30 in Calm     74% 0 in 0 W/m2
03:39 69.8 °F 61.2 °F 30 in Calm     74% 0 in 0 W/m2
03:44 69.6 °F 61.3 °F 30 in Calm     75% 0 in 0 W/m2
03:49 69.6 °F 61.3 °F 30 in Calm     75% 0 in 0 W/m2
03:54 69.6 °F 61.3 °F 30 in Calm     75% 0 in 0 W/m2
03:59 69.4 °F 61.2 °F 30 in Calm     75% 0 in 0 W/m2
04:04 69.4 °F 61.2 °F 30 in Calm     75% 0 in 0 W/m2
04:09 69.4 °F 61.2 °F 30 in Calm     75% 0 in 0 W/m2
04:14 69.3 °F 61 °F 30 in Calm     75% 0 in 0 W/m2
04:19 69.3 °F 61 °F 30 in Calm     75% 0 in 0 W/m2
04:24 69.1 °F 61.2 °F 30 in Calm     76% 0 in 0 W/m2
04:29 69.1 °F 61.2 °F 30 in Calm     76% 0 in 0 W/m2
04:34 68.9 °F 61 °F 30 in Calm     76% 0 in 0 W/m2
04:39 68.7 °F 60.4 °F 30 in Calm     75% 0 in 0 W/m2
04:44 68.7 °F 60.8 °F 30 in Calm     76% 0 in 0 W/m2
04:50 68.7 °F 60.8 °F 30 in Calm     76% 0 in 0 W/m2
04:55 68.5 °F 60.6 °F 30 in Calm     76% 0 in 0 W/m2
05:00 68.5 °F 60.6 °F 30 in Calm     76% 0 in 0 W/m2
05:05 68.4 °F 60.4 °F 30 in Calm     76% 0 in 0 W/m2
05:10 68.4 °F 60.4 °F 30 in Calm     76% 0 in 0 W/m2
05:15 68.2 °F 60.3 °F 30 in Calm     76% 0 in 0 W/m2
05:20 68.2 °F 60.3 °F 30 in Calm     76% 0 in 0 W/m2
05:25 68 °F 60.1 °F 30 in Calm     76% 0 in 0 W/m2
05:30 67.8 °F 59.9 °F 30 in Calm     76% 0 in 0 W/m2
05:35 67.8 °F 60.3 °F 30 in Calm     77% 0 in 0 W/m2
05:40 67.8 °F 60.3 °F 30 in Calm     77% 0 in 0 W/m2
05:45 67.6 °F 60.3 °F 30 in Calm     77% 0 in 0 W/m2
05:50 67.6 °F 60.3 °F 30 in Calm     77% 0 in 0 W/m2
05:55 67.5 °F 60.1 °F 30 in Calm     77% 0 in 0 W/m2
06:00 67.5 °F 60.1 °F 30 in Calm     77% 0 in 0 W/m2
06:05 67.5 °F 60.1 °F 30 in Calm     77% 0 in 0 W/m2
06:10 67.3 °F 59.9 °F 30 in Calm     77% 0 in 0 W/m2
06:15 67.3 °F 60.3 °F 30 in Calm     78% 0 in 0 W/m2
06:20 67.1 °F 60.1 °F 30 in Calm     78% 0 in 5 W/m2
06:25 67.1 °F 60.1 °F 30 in Calm     78% 0 in 7 W/m2
06:30 67.1 °F 60.4 °F 30 in Calm     79% 0 in 9 W/m2
06:35 67.3 °F 60.6 °F 30 in Calm     79% 0 in 12 W/m2
06:40 67.3 °F 60.6 °F 30 in Calm     79% 0 in 14 W/m2
06:45 67.3 °F 60.6 °F 30 in Calm     79% 0 in 18 W/m2
06:50 67.5 °F 60.8 °F 30 in Calm     79% 0 in 21 W/m2
06:55 67.5 °F 60.8 °F 30 in Calm     79% 0 in 25 W/m2
07:00 67.5 °F 60.8 °F 30 in Calm     79% 0 in 26 W/m2
07:05 67.6 °F 61 °F 30 in Calm     79% 0 in 26 W/m2
07:10 67.6 °F 61.2 °F 30 in Calm     80% 0 in 26 W/m2
07:15 67.8 °F 61.3 °F 30 in Calm     80% 0 in 28 W/m2
07:20 67.8 °F 61.3 °F 30 in Calm     80% 0 in 32 W/m2
07:25 68 °F 61.5 °F 30 in Calm     80% 0 in 35 W/m2
07:30 68.2 °F 61.7 °F 30 in Calm     80% 0 in 39 W/m2
07:35 68.4 °F 61.9 °F 30 in Calm     80% 0 in 42 W/m2
07:40 68.5 °F 62.1 °F 30 in Calm     80% 0 in 42 W/m2
07:45 68.9 °F 62.1 °F 30 in Calm     79% 0 in 44 W/m2
07:50 69.3 °F 61.7 °F 30 in Calm     77% 0 in 49 W/m2
07:55 69.6 °F 62.1 °F 30 in Calm     77% 0 in 56 W/m2
08:00 70 °F 62.1 °F 30 in Calm     76% 0 in 69 W/m2
08:05 70.3 °F 62.4 °F 30 in Calm     76% 0 in 114 W/m2
08:10 70.9 °F 62.6 °F 30 in Calm     75% 0 in 70 W/m2
08:15 71.4 °F 62.2 °F 30 in Calm     73% 0 in 65 W/m2
08:20 72.5 °F 62.6 °F 30 in Calm   1 mph 71% 0 in 65 W/m2
08:25 73.6 °F 62.4 °F 30 in Calm   2 mph 68% 0 in 65 W/m2
08:30 74.7 °F 62.6 °F 30 in Calm   1 mph 66% 0 in 65 W/m2
08:35 75 °F 62.4 °F 30 in Calm   2 mph 65% 0 in 65 W/m2
08:40 75.2 °F 61.7 °F 30 in Calm   1 mph 63% 0 in 49 W/m2
08:45 75.4 °F 62.8 °F 30 in Calm   1 mph 65% 0 in 46 W/m2
08:50 75 °F 62.4 °F 30 in Calm   1 mph 65% 0 in 46 W/m2
08:55 74.7 °F 62.1 °F 30 in Calm     65% 0 in 51 W/m2
09:00 74.7 °F 63 °F 30 in Calm     67% 0 in 60 W/m2
09:05 74.5 °F 63.7 °F 30 in Calm     69% 0 in 79 W/m2
09:10 74.5 °F 64 °F 30 in Calm     70% 0 in 330 W/m2
09:15 74.8 °F 62.8 °F 30 in Calm     66% 0 in 348 W/m2
09:20 75.4 °F 62.8 °F 30 in NE 1 mph 1 mph 65% 0 in 381 W/m2
09:25 76.1 °F 62.6 °F 30 in NE 0.9 mph 1 mph 63% 0 in 397 W/m2
09:30 76.8 °F 62.4 °F 30 in Calm   2 mph 61% 0 in 415 W/m2
09:35 77.7 °F 62.2 °F 30 in ENE 0.9 mph 2 mph 59% 0 in 417 W/m2
09:40 78.4 °F 61.9 °F 30 in Calm     57% 0 in 415 W/m2
09:45 79.2 °F 62.1 °F 30 in North 0.9 mph 1 mph 56% 0 in 369 W/m2
09:50 79.9 °F 62.8 °F 30 in Calm   1 mph 56% 0 in 95 W/m2
09:55 80.4 °F 62.8 °F 30 in East 0.9 mph 2 mph 55% 0 in 417 W/m2
10:00 81.3 °F 62.6 °F 30 in NE 0.9 mph 3 mph 53% 0 in 471 W/m2
10:05 82 °F 62.6 °F 30 in NE 2 mph 3 mph 52% 0 in 494 W/m2
10:10 82.4 °F 62.4 °F 30 in ESE 2 mph 3 mph 51% 0 in 512 W/m2
10:15 82.9 °F 63 °F 30 in Calm   3 mph 51% 0 in 517 W/m2
10:20 83.5 °F 63.5 °F 30 in East 4 mph 5 mph 51% 0 in 526 W/m2
10:25 84 °F 63.9 °F 30 in East 4 mph 4 mph 51% 0 in 531 W/m2
10:30 84.4 °F 63.1 °F 30 in Calm   5 mph 49% 0 in 541 W/m2
10:35 84.6 °F 62.8 °F 30 in Calm   2 mph 48% 0 in 561 W/m2
10:40 85.3 °F 64 °F 30 in ESE 0.9 mph 2 mph 49% 0 in 577 W/m2
10:45 85.6 °F 63.1 °F 30 in ENE 2.9 mph 3 mph 47% 0 in 225 W/m2
10:50 85.8 °F 63.3 °F 30 in East 2.9 mph 4 mph 47% 0 in 236 W/m2
10:55 85.8 °F 62.6 °F 30 in East 2.9 mph 3 mph 46% 0 in 301 W/m2
11:00 86.2 °F 63 °F 30 in ESE 2 mph 4 mph 46% 0 in 366 W/m2
11:05 86.4 °F 63.7 °F 30 in East 2 mph 2 mph 47% 0 in 483 W/m2
11:10 86.5 °F 62.6 °F 30 in ENE 4 mph 4 mph 45% 0 in 561 W/m2
Juneau County Weather
Compliments of Weather Underground - 2 mb